User: anonymous   Login
Location: Casa Rossa
(45.2389°N, 12.2056°E)
Time: 14:06:18
(UTC+00:00)
Language:

deb Kosmos-1763 - Orbit

View from above orbital plane
View from above orbital plane
View from above satellite
View from above satellite

Ground track
Ground track

The orbit data is extracted from the following two-line orbital elements,

1 16865U 86052C   20263.16237389  .00003915  00000-0  12948-3 0  9994
2 16865  74.0011 172.8647 0010877 213.9095 146.1414 15.31697566836689
Epoch (UTC): 19 September 2020 03:53:49
Eccentricity: 0.0010877
inclination: 74.0011°
perigee height: 463 km
apogee height: 478 km
right ascension of ascending node: 172.8647°
argument of perigee: 213.9095°
revolutions per day: 15.31697566
mean anomaly at epoch: 146.1414°
orbit number at epoch: 83668

The dashed part of the orbit path shows where the satellite is in the earth's shadow,  

DLR